Simultaneous Nadir Overpasses (SNOs) Predictions

Prediction of SNOs between NOAA-19 and NPP Satellite Orbit:

Table of predicted SNOs for the next 14.0 days since TLE Epoch: 3/2/2018
Index Date (NOAA-19) Time (NOAA-19) Lat,Lon (NOAA-19) SZA (NOAA-19 ) Date (NPP) Time (NPP) Lat,Lon (NPP) SZA (NPP ) Distance(km) Time Diff (sec)
1 03/06/2018 22:13:41 80.64, 159.76 89.28 03/06/2018 22:14:56 80.64, 159.65 89.26 2.15 75
2 03/06/2018 23:04:40 -80.64, -32.91 90.75 03/06/2018 23:05:40 -80.62, -32.81 90.80 2.64 60
3 03/06/2018 23:55:42 80.64, 134.36 89.24 03/06/2018 23:56:26 80.64, 134.25 89.23 2.03 44
4 03/07/2018 00:46:42 -80.63, -58.67 90.75 03/07/2018 00:47:11 -80.64, -58.54 90.77 2.89 29
5 03/07/2018 01:37:43 80.64, 108.96 89.20 03/07/2018 01:37:56 80.64, 108.85 89.21 1.95 13
6 03/07/2018 02:28:43 -80.63, -84.08 90.79 03/07/2018 02:28:41 -80.65, -83.94 90.79 2.95 2
7 03/07/2018 03:19:44 80.65, 83.55 89.17 03/07/2018 03:19:26 80.64, 83.45 89.18 1.91 18
8 03/07/2018 04:10:44 -80.64,-109.49 90.82 03/07/2018 04:10:11 -80.65,-109.34 90.82 3.05 33
9 03/07/2018 05:01:45 80.65, 58.15 89.13 03/07/2018 05:00:56 80.64, 58.06 89.16 1.93 49




NCC Satellite Simultaneous Nadir Overpasses (SNOs) Prediction Service
